Regional Weather Roundup
Issued by NWS Glasgow, MT

Home | Current Version | Previous Version | Text Only | Print | Product List | Glossary On
Versions: 1 2 3 4 5 6 7 8 9 10 11 12 13 14 15 16 17 18 19 20 21 22 23 24 25 26 27 28 29 30 31 32 33 34 35 36 37 38 39 40 41 42 43 44 45 46 47 48 49 50
000
ASUS45 KGGW 290915
RWRGGW
HOURLY WEATHER ROUNDUP FOR NORTHEAST MONTANA
NATIONAL WEATHER SERVICE GLASGOW MONTANA
200 AM MST THU JAN 29 2015

NOTE: "FAIR" INDICATES FEW OR NO CLOUDS BELOW 12,000 FEET WITH NO
SIGNIFICANT WEATHER AND/OR OBSTRUCTIONS TO VISISBILITY.

NORTHEAST MONTANA


CITY           SKY/WX    TMP DP  RH WIND       PRES   REMARKS
GLASGOW        CLEAR     25  22  88 W5        30.42R FOG
PLENTYWOOD       N/A     24  21  88 NW14G22     N/A
WOLF POINT     CLEAR     26  22  84 W5        30.43R
JORDAN           N/A     23  21  92 W5        30.42S
WINNETT          N/A     26  25  96 SW2         N/A
SIDNEY         CLOUDY    30  21  69 W7        30.43R
GLENDIVE       PTCLDY    28  23  80 NW10      30.41R
MALTA            N/A     25  25 100 SW5         N/A
SCOBEY           N/A     25  19  78 NW14G20   30.35R

FORT PECK REPORTS


CITY           SKY/WX    TMP DP  RH WIND       PRES   REMARKS
FORT PECK        N/A     27  27 100 SW9G17      N/A
THE PINES        N/A     29  28  96 W3          N/A

SOUTHEAST MONTANA


CITY           SKY/WX    TMP DP  RH WIND       PRES   REMARKS
BILLINGS       PTCLDY    36  27  69 SW6       30.42S
MILES CITY     PTCLDY    26  23  88 SW5       30.43R
BAKER          MOCLDY    28  24  85 NW12      30.40R
LIVINGSTON     CLEAR     27  23  85 CALM      30.39S

CENTRAL MONTANA


CITY           SKY/WX    TMP DP  RH WIND       PRES   REMARKS
HAVRE          CLEAR     25  24  96 CALM      30.40S
LEWISTOWN      CLEAR     25  21  85 E6        30.38S
GREAT FALLS    CLEAR     29  26  89 S9        30.35F FOG
CUT BANK       CLEAR     23  22  96 CALM      30.33S FOG
HELENA         CLEAR     27  21  78 CALM      30.40S
BUTTE          CLEAR     21  18  88 CALM      30.40S
BOZEMAN        CLEAR     25  21  85 S8        30.41S

WESTERN MONTANA


CITY           SKY/WX    TMP DP  RH WIND       PRES   REMARKS
MISSOULA       CLEAR     27  23  85 CALM      30.46R
KALISPELL      NOT AVBL

NORTH DAKOTA


CITY           SKY/WX    TMP DP  RH WIND       PRES   REMARKS
WILLISTON      CLOUDY    28  20  71 NW15      30.40R
DICKINSON      CLOUDY    32  23  69 NW17G25   30.31R
MINOT          CLOUDY    25  18  74 NW22G31   30.32R
BISMARCK       CLOUDY    31  26  82 NW20G25   30.31R

SOUTHERN SASKATCHEWAN


CITY           SKY/WX    TMP DP  RH WIND       PRES   REMARKS
REGINA         CLOUDY    18  16  93 N10       30.40
ESTEVAN        FLURRIES  23  19  86 NW21G26   30.36
SWIFT CURRENT  CLEAR     16  14  93 W6        30.38S




USA.gov is the U.S. government's official web portal to all federal, state and local government web resources and services.